[[{"header":{"parameterUnit":"m.s-1","parameterCategory":2,"la1":30.2991,"la2":30.254,"lo1":-89.0895,"lo2":-89.0444,"dy":0.0017,"dx":0.0017,"nx":28,"ny":28,"refTime":"2025-03-08T09:00:00:Z","depth":"0","parameterNumber":2,"parameterNumberName":"U-component_of_CURRENTS"},"data":[0,0,0,0,0,0,0,0,0,0,0,0,0,0,0,0,0,0,0,0,0,0,0,0,0,0,0,0,0,0,0,0,0,0,0,0,0,0,0,0,0,0,0,0,0,0,0,0,0,0,0,0,0,0,0,0,0,0,-0.2359,-0.2359,0,-0.2397,-0.2397,-0.2397,-0.2404,-0.2403,-0.2403,-0.2403,-0.243,-0.2431,-0.2432,0,0,0,0,0,0,0,0,0,0,0,0,0,-0.2293,-0.2294,-0.2359,-0.2359,-0.236,-0.2397,-0.2397,-0.2397,-0.2404,-0.2403,-0.2403,-0.2403,-0.243,-0.2431,-0.2432,0,0,0,0,0,0,0,0,0,0,0,0,0,-0.2323,-0.2294,-0.2359,-0.2369,-0.237,-0.2396,-0.2397,-0.2397,-0.2404,-0.2403,-0.2403,-0.2403,-0.243,-0.2431,-0.2432,-0.2445,0,0,-0.2436,-0.2437,0,0,0,0,0,0,0,0,-0.2322,-0.2326,-0.2367,-0.2368,-0.237,-0.2397,-0.2384,-0.2413,-0.2404,-0.2389,-0.2403,-0.2403,-0.2419,-0.2421,-0.2427,-0.2446,-0.2448,-0.2436,-0.2437,-0.2438,-0.2438,0,0,0,0,0,0,0,-0.232,-0.2324,-0.2372,-0.2367,-0.2369,-0.2372,-0.2376,-0.2389,-0.2404,-0.239,-0.2391,-0.2398,-0.242,-0.2426,-0.2427,-0.2448,-0.2436,-0.2437,-0.2438,-0.2439,-0.2431,-0.243,0,0,0,0,0,0,-0.2319,-0.2322,-0.2371,-0.2373,-0.2347,-0.2374,-0.2378,-0.2387,-0.2404,-0.2407,-0.2399,-0.2399,-0.2423,-0.2426,-0.2428,-0.2425,-0.2438,-0.2439,-0.244,-0.2432,-0.2431,-0.2429,0,0,0,0,0,0,-0.2317,-0.2323,-0.2369,-0.235,-0.2356,-0.2375,-0.2385,-0.2388,-0.2394,-0.241,-0.2413,-0.2402,-0.2423,-0.2427,-0.243,-0.2427,-0.2439,-0.2441,-0.2433,-0.2431,-0.243,-0.243,0,0,0,0,0,0,-0.2315,-0.2322,-0.2326,-0.235,-0.2357,-0.2382,-0.2386,-0.2389,-0.2399,-0.24,-0.2414,-0.2416,-0.2423,-0.2428,-0.2432,-0.2429,-0.2442,-0.2434,-0.2432,-0.243,-0.2432,-0.2429,-0.2427,0,0,0,0,0,-0.2313,-0.232,-0.2326,-0.2331,-0.2362,-0.2383,-0.2386,-0.2398,-0.24,-0.2402,-0.2405,-0.2416,-0.2418,-0.2429,-0.2433,-0.243,-0.2435,-0.2433,-0.2431,-0.2433,-0.243,-0.2427,0,0,0,0,0,0,-0.2297,-0.2323,-0.2329,-0.2345,-0.2361,-0.2384,-0.2389,-0.2398,-0.2404,-0.2402,-0.2413,-0.2416,-0.2413,-0.2418,-0.243,-0.2418,-0.2425,-0.2423,-0.2425,-0.2422,-0.242,-0.2427,-0.2443,0,0,0,0,0,-0.2295,-0.2303,-0.233,-0.234,-0.2349,-0.2369,-0.2378,-0.2387,-0.2398,-0.2401,-0.2409,-0.241,-0.2407,-0.2413,-0.2411,-0.2417,-0.2412,-0.2411,-0.2409,-0.2407,-0.2413,-0.24,-0.2397,-0.2422,-0.2422,-0.2422,0,0,-0.2291,-0.2306,-0.2311,-0.2337,-0.2349,-0.2367,-0.2373,-0.2388,-0.2398,-0.2403,-0.2411,-0.2404,-0.2404,-0.2401,-0.2401,-0.2408,-0.2393,-0.2404,-0.2403,-0.241,-0.2397,-0.2395,-0.2393,-0.2421,-0.2421,-0.2421,0,0,-0.229,-0.2301,-0.231,-0.2326,-0.2349,-0.2362,-0.2367,-0.2389,-0.2392,-0.2401,-0.2396,-0.2385,-0.2396,-0.2388,-0.2387,-0.2371,-0.2377,-0.2368,-0.2373,-0.236,-0.2358,-0.2357,-0.2334,-0.233,-0.2372,-0.2372,-0.2372,0,-0.2284,-0.2303,-0.2315,-0.2333,-0.2347,-0.2361,-0.2378,-0.2386,-0.2403,-0.2406,-0.2401,-0.2393,-0.2388,-0.2383,-0.237,-0.2368,-0.2361,-0.2389,-0.2359,-0.2357,-0.2356,-0.2333,-0.2329,-0.2372,-0.2372,-0.2372,-0.2372,0,-0.2294,-0.2311,-0.2318,-0.2343,-0.2359,-0.2374,-0.2393,-0.2401,-0.2405,-0.2412,-0.2404,-0.2388,-0.2386,-0.2373,-0.237,-0.2355,-0.2352,-0.2355,-0.2372,-0.2354,-0.233,-0.2326,-0.2371,-0.2372,-0.2372,-0.2372,0,0,-0.227,-0.2317,-0.2317,-0.2334,-0.2366,-0.238,-0.2398,-0.2417,-0.2427,-0.2423,-0.2428,-0.2403,-0.2394,-0.239,-0.2376,-0.2359,-0.233,-0.2356,-0.2356,-0.2343,-0.2297,-0.2239,-0.2229,-0.2335,-0.2335,-0.2335,-0.2279,0,-0.2272,-0.2305,-0.2329,-0.2356,-0.2375,-0.24,-0.2417,-0.2433,-0.244,-0.2445,-0.2424,-0.2418,-0.2402,-0.2393,-0.2376,-0.2347,-0.2322,-0.2344,-0.2307,-0.2306,-0.2265,-0.2223,-0.2163,-0.2105,-0.2276,-0.2275,-0.2275,0,-0.2268,-0.2294,-0.2323,-0.2369,-0.2379,-0.2395,-0.2424,-0.2442,-0.2456,-0.2461,-0.2456,-0.2445,-0.242,-0.2404,-0.2353,-0.2372,-0.2333,-0.2304,-0.2302,-0.2249,-0.2241,-0.2151,-0.2091,-0.2083,-0.2269,-0.2269,-0.227,0,-0.2233,-0.2285,-0.2306,-0.2322,-0.2375,-0.2389,-0.2413,-0.2439,-0.245,-0.2465,-0.2468,-0.2454,-0.2434,-0.2398,-0.234,-0.2351,-0.2277,-0.2286,-0.2193,-0.2189,-0.2129,-0.212,-0.2066,-0.2239,-0.2239,-0.2239,-0.2239,0,-0.2218,-0.2231,-0.2291,-0.2301,-0.2322,-0.237,-0.2386,-0.2412,-0.2442,-0.2445,-0.2465,-0.2455,-0.2432,-0.2392,-0.2344,-0.225,-0.228,-0.2182,-0.2167,-0.2124,-0.2115,-0.21,-0.2116,-0.2237,-0.2238,-0.2238,-0.2238,0,-0.2159,-0.2205,-0.2227,-0.2286,-0.2302,-0.231,-0.236,-0.2371,-0.2415,-0.242,-0.2424,-0.2446,-0.2395,-0.2354,-0.2286,-0.224,-0.2125,-0.2123,-0.2067,-0.2046,-0.1953,-0.197,-0.1884,-0.1826,-0.2016,-0.2014,-0.2012,0,-0.2127,-0.2134,-0.2191,-0.2199,-0.2219,-0.2248,-0.2264,-0.2333,-0.2349,-0.2402,-0.2394,-0.2375,-0.2331,-0.2222,-0.2143,-0.2043,-0.2035,-0.1935,-0.1936,-0.1925,-0.1935,-0.1941,-0.19,-0.1854,-0.1852,-0.185,-0.1848,0,-0.2051,-0.2072,-0.2089,-0.2111,-0.2129,-0.2153,-0.2188,-0.2202,-0.2279,-0.2289,-0.2291,-0.2267,-0.2194,-0.2079,-0.1971,-0.1902,-0.1895,-0.1884,-0.189,-0.181,-0.1797,-0.1742,-0.1917,-0.1828,-0.183,-0.1831,-0.1833,-0.1833,-0.1972,-0.1966,-0.199,-0.1996,-0.2022,-0.2033,-0.2014,-0.2067,-0.2075,-0.2074,-0.2139,-0.2085,-0.2038,-0.1877,-0.181,-0.1701,-0.1727,-0.166,-0.1683,-0.1692,-0.1629,-0.1751,-0.1638,-0.1639,-0.164,-0.164,-0.1641,0,-0.186,-0.1867,-0.1873,-0.188,-0.186,-0.1914,-0.1935,-0.1896,-0.1864,-0.191,-0.189,-0.1867,-0.1758,-0.172,-0.1622,-0.1543,-0.15,-0.1503,-0.1516,-0.1482,-0.16,-0.1587,-0.1436,-0.1436,-0.1436,-0.1436,-0.1436,-0.1436,-0.1802,-0.1766,-0.1773,-0.1704,-0.1708,-0.1641,-0.1624,-0.1591,-0.1597,-0.1558,-0.1577,-0.1634,-0.1626,-0.1686,-0.1575,-0.1489,-0.1443,-0.1392,-0.1394,-0.1516,-0.1534,-0.1551,-0.1542,-0.1385,-0.1385,-0.1234,-0.1233,-0.1232]},{"header":{"parameterUnit":"m.s-1","parameterCategory":2,"la1":30.2991,"la2":30.254,"lo1":-89.0895,"lo2":-89.0444,"dy":0.0017,"dx":0.0017,"nx":28,"ny":28,"refTime":"2025-03-08T09:00:00:Z","depth":"0","parameterNumber":3,"parameterNumberName":"V-component_of_CURRENTS"},"data":[0,0,0,0,0,0,0,0,0,0,0,0,0,0,0,0,0,0,0,0,0,0,0,0,0,0,0,0,0,0,0,0,0,0,0,0,0,0,0,0,0,0,0,0,0,0,0,0,0,0,0,0,0,0,0,0,0,0,-0.0433,-0.0433,0,-0.0378,-0.0377,-0.0376,-0.0328,-0.0328,-0.0327,-0.0327,-0.0232,-0.023,-0.0228,0,0,0,0,0,0,0,0,0,0,0,0,0,-0.0451,-0.0451,-0.0433,-0.0433,-0.0432,-0.0378,-0.0377,-0.0376,-0.0328,-0.0328,-0.0327,-0.0327,-0.0232,-0.023,-0.0227,0,0,0,0,0,0,0,0,0,0,0,0,0,-0.0424,-0.0451,-0.0434,-0.0402,-0.0399,-0.0378,-0.0377,-0.0376,-0.0328,-0.0328,-0.0327,-0.0326,-0.0233,-0.023,-0.0227,-0.0222,0,0,-0.0218,-0.0216,0,0,0,0,0,0,0,0,-0.0425,-0.0423,-0.0407,-0.0404,-0.0401,-0.036,-0.0348,-0.0323,-0.0329,-0.0355,-0.0327,-0.0326,-0.0272,-0.0266,-0.0256,-0.0218,-0.0214,-0.0217,-0.0215,-0.0214,-0.0213,0,0,0,0,0,0,0,-0.0427,-0.0425,-0.0411,-0.0407,-0.0403,-0.0375,-0.037,-0.0343,-0.0317,-0.0352,-0.0349,-0.0344,-0.0269,-0.0259,-0.0254,-0.0212,-0.0217,-0.0215,-0.0213,-0.0211,-0.0153,-0.0154,0,0,0,0,0,0,-0.0439,-0.0427,-0.0412,-0.0409,-0.0412,-0.0375,-0.037,-0.0373,-0.0318,-0.0309,-0.0344,-0.0342,-0.0265,-0.0257,-0.025,-0.0235,-0.0214,-0.0211,-0.0209,-0.0153,-0.0154,-0.0154,0,0,0,0,0,0,-0.044,-0.0438,-0.0415,-0.0417,-0.0412,-0.0376,-0.0379,-0.0372,-0.0361,-0.0312,-0.0303,-0.034,-0.0264,-0.0254,-0.023,-0.0231,-0.021,-0.0207,-0.0153,-0.0153,-0.0154,-0.0208,0,0,0,0,0,0,-0.0441,-0.0439,-0.0444,-0.0418,-0.0412,-0.0409,-0.038,-0.0372,-0.0359,-0.0355,-0.0305,-0.0296,-0.0263,-0.0235,-0.0227,-0.0226,-0.0204,-0.0152,-0.0153,-0.0154,-0.0206,-0.021,-0.0214,0,0,0,0,0,-0.0441,-0.0455,-0.0445,-0.0443,-0.0421,-0.0409,-0.0404,-0.0375,-0.036,-0.0361,-0.0327,-0.0297,-0.0233,-0.0233,-0.0224,-0.0222,-0.0152,-0.0153,-0.0153,-0.0204,-0.0209,-0.0214,0,0,0,0,0,0,-0.0463,-0.0451,-0.0439,-0.0447,-0.0432,-0.0402,-0.0399,-0.0381,-0.0356,-0.035,-0.0303,-0.0292,-0.0271,-0.0242,-0.0243,-0.0207,-0.0187,-0.0186,-0.0228,-0.0233,-0.0237,-0.0245,-0.0202,0,0,0,0,0,-0.0472,-0.0479,-0.0459,-0.0465,-0.046,-0.0431,-0.0422,-0.0404,-0.0379,-0.0367,-0.0333,-0.0297,-0.0267,-0.0248,-0.022,-0.0201,-0.0162,-0.0193,-0.0197,-0.0201,-0.0201,-0.015,-0.015,-0.0156,-0.0156,-0.0156,0,0,-0.0482,-0.0476,-0.0478,-0.047,-0.0455,-0.0457,-0.0424,-0.0417,-0.0414,-0.0361,-0.0347,-0.0313,-0.0267,-0.0247,-0.0234,-0.0221,-0.0179,-0.0202,-0.0205,-0.0203,-0.0151,-0.015,-0.0149,-0.0157,-0.0157,-0.0157,0,0,-0.0511,-0.05,-0.0518,-0.0511,-0.0496,-0.0478,-0.0479,-0.0454,-0.0436,-0.0421,-0.0381,-0.0348,-0.0308,-0.0271,-0.0248,-0.0258,-0.0206,-0.0251,-0.0271,-0.0223,-0.0221,-0.022,-0.017,-0.0163,-0.0248,-0.0248,-0.0248,0,-0.0523,-0.0543,-0.0521,-0.0535,-0.0531,-0.0492,-0.0507,-0.0486,-0.0455,-0.0438,-0.0425,-0.0354,-0.0317,-0.0279,-0.0283,-0.0266,-0.0231,-0.0257,-0.0228,-0.0225,-0.0223,-0.0171,-0.0164,-0.0251,-0.0251,-0.025,-0.025,0,-0.0566,-0.0579,-0.0589,-0.0594,-0.0586,-0.0592,-0.0562,-0.0549,-0.0522,-0.0492,-0.0453,-0.0401,-0.0355,-0.0339,-0.0314,-0.0278,-0.0257,-0.0243,-0.0216,-0.0226,-0.0171,-0.0162,-0.0255,-0.0254,-0.0253,-0.0252,0,0,-0.0601,-0.0618,-0.0621,-0.0632,-0.0618,-0.0616,-0.0609,-0.0585,-0.057,-0.053,-0.0501,-0.045,-0.0411,-0.0382,-0.0339,-0.0296,-0.0249,-0.0268,-0.0264,-0.022,-0.0139,-0.0092,-0.0077,-0.0231,-0.023,-0.0229,-0.0108,0,-0.0641,-0.0688,-0.0677,-0.0706,-0.0724,-0.0685,-0.0679,-0.0647,-0.0606,-0.0567,-0.0499,-0.0458,-0.043,-0.0402,-0.0357,-0.0272,-0.0228,-0.0283,-0.0135,-0.013,-0.0088,-0.0066,-0.0037,0.0076,-0.0098,-0.0097,-0.0096,0,-0.0688,-0.0712,-0.0757,-0.0763,-0.0765,-0.0769,-0.0739,-0.0727,-0.0658,-0.0621,-0.0562,-0.0503,-0.0428,-0.0407,-0.027,-0.0307,-0.0233,-0.017,-0.0163,-0.0093,-0.0066,0.0058,0.01,0.0212,-0.0081,-0.0082,-0.0083,0,-0.073,-0.0763,-0.08,-0.0805,-0.0806,-0.0808,-0.0798,-0.0745,-0.0722,-0.0649,-0.0615,-0.0521,-0.0456,-0.0363,-0.0229,-0.0249,-0.0071,-0.0078,0.0034,0.0038,0.0106,0.0115,0.0275,0.0012,0.0012,0.0011,0.0011,0,-0.0781,-0.0808,-0.0825,-0.0847,-0.0874,-0.0852,-0.0853,-0.0823,-0.0764,-0.0725,-0.0646,-0.0581,-0.0443,-0.0322,-0.0224,-0.0052,-0.0061,0.0042,0.0078,0.0088,0.0093,0.0229,0.0266,0.0016,0.0015,0.0014,0.0013,0,-0.0824,-0.0839,-0.0881,-0.0896,-0.09,-0.0917,-0.0898,-0.0887,-0.0829,-0.0772,-0.0748,-0.0607,-0.0444,-0.0297,-0.0112,-0.0028,0.0199,0.0176,0.0182,0.0216,0.0404,0.0435,0.064,0.0702,0.0312,0.0314,0.0316,0,-0.085,-0.0881,-0.092,-0.0944,-0.0955,-0.097,-0.0974,-0.0928,-0.0903,-0.0778,-0.0747,-0.0576,-0.0438,-0.0147,0.0039,0.0238,0.0309,0.0371,0.0334,0.0436,0.0497,0.052,0.0558,0.0405,0.0407,0.0409,0.041,0,-0.0892,-0.0907,-0.0941,-0.0997,-0.1019,-0.1035,-0.1032,-0.102,-0.0943,-0.0869,-0.073,-0.0607,-0.0312,-0.0053,0.0208,0.032,0.046,0.0414,0.0526,0.0594,0.0625,0.0694,0.0301,0.0427,0.0425,0.0424,0.0423,0.0422,-0.0911,-0.0948,-0.0994,-0.1042,-0.1071,-0.1086,-0.1084,-0.1049,-0.0989,-0.0855,-0.073,-0.0517,-0.015,0.023,0.0367,0.0654,0.0613,0.0723,0.0757,0.0774,0.0827,0.047,0.0627,0.0627,0.0627,0.0626,0.0626,0,-0.0931,-0.0976,-0.1032,-0.1085,-0.1117,-0.1119,-0.1106,-0.1068,-0.0984,-0.0839,-0.0679,-0.0266,0.0096,0.0417,0.0825,0.0982,0.1,0.1059,0.1095,0.1118,0.082,0.0815,0.1013,0.1013,0.1012,0.1012,0.1012,0.1012,-0.0943,-0.1004,-0.1039,-0.1104,-0.1136,-0.1144,-0.1128,-0.1043,-0.0931,-0.0674,-0.0436,-0.0249,0.0216,0.089,0.1271,0.1302,0.1416,0.1421,0.1479,0.1264,0.1234,0.1206,0.1212,0.149,0.1491,0.1764,0.1767,0.1769]}],[{"header":{"parameterUnit":"m.s-1","parameterCategory":2,"la1":30.2991,"la2":30.254,"lo1":-89.0895,"lo2":-89.0444,"dy":0.0017,"dx":0.0017,"nx":28,"ny":28,"refTime":"2025-03-08T09:00:00:Z","depth":"2","parameterNumber":2,"parameterNumberName":"U-component_of_CURRENTS"},"data":[0,0,0,0,0,0,0,0,0,0,0,0,0,0,0,0,0,0,0,0,0,0,0,0,0,0,0,0,0,0,0,0,0,0,0,0,0,0,0,0,0,0,0,0,0,0,0,0,0,0,0,0,0,0,0,0,0,0,-0.2037,-0.2037,0,-0.2072,-0.2072,-0.2073,-0.2083,-0.2083,-0.2083,-0.2083,-0.2116,-0.2117,-0.2118,0,0,0,0,0,0,0,0,0,0,0,0,0,-0.198,-0.198,-0.2037,-0.2037,-0.2038,-0.2072,-0.2072,-0.2073,-0.2083,-0.2083,-0.2083,-0.2083,-0.2116,-0.2117,-0.2118,0,0,0,0,0,0,0,0,0,0,0,0,0,-0.2007,-0.1981,-0.2037,-0.2048,-0.205,-0.2072,-0.2072,-0.2073,-0.2083,-0.2083,-0.2083,-0.2083,-0.2116,-0.2117,-0.2119,-0.2129,0,0,-0.2123,-0.2123,0,0,0,0,0,0,0,0,-0.2006,-0.2009,-0.2046,-0.2047,-0.2049,-0.2074,-0.2065,-0.2092,-0.2083,-0.2069,-0.2083,-0.2083,-0.2103,-0.2106,-0.211,-0.213,-0.2132,-0.2123,-0.2124,-0.2124,-0.2125,0,0,0,0,0,0,0,-0.2004,-0.2008,-0.2049,-0.2047,-0.2049,-0.2052,-0.2056,-0.207,-0.2085,-0.207,-0.2071,-0.2078,-0.2104,-0.2109,-0.2111,-0.2132,-0.2123,-0.2124,-0.2125,-0.2126,-0.2132,-0.2131,0,0,0,0,0,0,-0.2003,-0.2006,-0.2048,-0.205,-0.2028,-0.2053,-0.2057,-0.2065,-0.2085,-0.2088,-0.2078,-0.2078,-0.2107,-0.211,-0.2112,-0.2119,-0.2124,-0.2126,-0.2127,-0.2132,-0.2132,-0.2131,0,0,0,0,0,0,-0.2001,-0.2006,-0.2047,-0.203,-0.2036,-0.2055,-0.2063,-0.2066,-0.2076,-0.2091,-0.2094,-0.2085,-0.2107,-0.2111,-0.2121,-0.212,-0.2126,-0.2128,-0.2133,-0.2132,-0.2131,-0.2135,0,0,0,0,0,0,-0.1999,-0.2005,-0.201,-0.203,-0.2037,-0.206,-0.2063,-0.2067,-0.208,-0.2081,-0.2098,-0.2101,-0.2107,-0.2119,-0.2123,-0.2122,-0.2129,-0.2134,-0.2133,-0.2132,-0.2136,-0.2135,-0.2133,0,0,0,0,0,-0.1997,-0.2005,-0.201,-0.2015,-0.2043,-0.2061,-0.2064,-0.2076,-0.208,-0.2084,-0.2092,-0.2101,-0.2113,-0.212,-0.2125,-0.2124,-0.2135,-0.2133,-0.2132,-0.2137,-0.2135,-0.2133,0,0,0,0,0,0,-0.1985,-0.2007,-0.2013,-0.2028,-0.2043,-0.2063,-0.207,-0.2079,-0.2089,-0.2091,-0.2102,-0.2105,-0.2109,-0.2114,-0.2122,-0.2118,-0.2122,-0.2121,-0.2124,-0.2122,-0.2121,-0.2124,-0.213,0,0,0,0,0,-0.1984,-0.1992,-0.2016,-0.2026,-0.2035,-0.2053,-0.2062,-0.2072,-0.2085,-0.209,-0.21,-0.2105,-0.2105,-0.2113,-0.2114,-0.2124,-0.2117,-0.2121,-0.212,-0.2119,-0.2121,-0.2108,-0.2106,-0.2126,-0.2126,-0.2126,0,0,-0.1982,-0.1995,-0.2,-0.2023,-0.2036,-0.2052,-0.2058,-0.2074,-0.2085,-0.2092,-0.2105,-0.2103,-0.2105,-0.2107,-0.2109,-0.2115,-0.2106,-0.2117,-0.2116,-0.2119,-0.2106,-0.2104,-0.2103,-0.2125,-0.2125,-0.2125,0,0,-0.1983,-0.1994,-0.2003,-0.2018,-0.204,-0.2052,-0.2058,-0.208,-0.2085,-0.21,-0.2097,-0.2092,-0.2109,-0.21,-0.21,-0.2092,-0.2096,-0.2093,-0.2098,-0.2084,-0.2083,-0.2082,-0.2063,-0.206,-0.2097,-0.2097,-0.2097,0,-0.198,-0.1996,-0.2008,-0.2024,-0.2038,-0.2053,-0.207,-0.2079,-0.2099,-0.2104,-0.2104,-0.2104,-0.2102,-0.2099,-0.209,-0.209,-0.2085,-0.2108,-0.2084,-0.2083,-0.2081,-0.2062,-0.2059,-0.2097,-0.2097,-0.2097,-0.2097,0,-0.1989,-0.2006,-0.2013,-0.2036,-0.2051,-0.2066,-0.2085,-0.2096,-0.2105,-0.2113,-0.2112,-0.2102,-0.2104,-0.2095,-0.2094,-0.2081,-0.208,-0.2082,-0.2092,-0.208,-0.206,-0.2056,-0.2097,-0.2097,-0.2097,-0.2097,0,0,-0.1972,-0.2012,-0.2013,-0.2029,-0.206,-0.2072,-0.2091,-0.211,-0.2122,-0.2125,-0.2134,-0.2116,-0.2111,-0.2108,-0.2098,-0.2083,-0.206,-0.2083,-0.2082,-0.2071,-0.2031,-0.1979,-0.197,-0.2065,-0.2065,-0.2064,-0.2018,0,-0.1975,-0.2003,-0.2024,-0.205,-0.2067,-0.2091,-0.2108,-0.2126,-0.2137,-0.2147,-0.2131,-0.2131,-0.2117,-0.2115,-0.2098,-0.2075,-0.2052,-0.2072,-0.2038,-0.2037,-0.1999,-0.1965,-0.1842,-0.1786,-0.2015,-0.2014,-0.2014,0,-0.1972,-0.1994,-0.202,-0.206,-0.207,-0.2087,-0.2117,-0.2136,-0.2154,-0.2163,-0.2163,-0.2158,-0.2137,-0.2123,-0.2077,-0.2096,-0.2062,-0.2037,-0.2035,-0.1985,-0.1979,-0.1836,-0.1771,-0.2008,-0.2008,-0.2009,-0.2009,0,-0.1943,-0.1988,-0.2007,-0.202,-0.2068,-0.2084,-0.2108,-0.2136,-0.2149,-0.217,-0.2178,-0.2166,-0.2153,-0.212,-0.207,-0.2079,-0.2015,-0.202,-0.1937,-0.1933,-0.1819,-0.1806,-0.1976,-0.1976,-0.1976,-0.1976,-0.1976,0,-0.1929,-0.1943,-0.1995,-0.2004,-0.2025,-0.207,-0.209,-0.2116,-0.2149,-0.2153,-0.2178,-0.2169,-0.2152,-0.2118,-0.2076,-0.1991,-0.2017,-0.1926,-0.1914,-0.1815,-0.1802,-0.1993,-0.1995,-0.1974,-0.1975,-0.1975,-0.1975,0,-0.1881,-0.1921,-0.1941,-0.1995,-0.2009,-0.2021,-0.207,-0.2081,-0.2129,-0.2136,-0.2142,-0.2165,-0.2121,-0.2089,-0.2029,-0.1984,-0.1918,-0.1879,-0.1762,-0.1736,-0.1846,-0.1849,-0.1784,-0.1782,-0.178,-0.1779,-0.1777,0,-0.1854,-0.1861,-0.1913,-0.192,-0.194,-0.197,-0.1985,-0.2051,-0.2065,-0.2117,-0.2108,-0.2099,-0.2055,-0.1963,-0.189,-0.1801,-0.1848,-0.164,-0.1626,-0.1829,-0.1824,-0.183,-0.1836,-0.1473,-0.1469,-0.1466,-0.1463,0,-0.1789,-0.181,-0.1823,-0.1843,-0.1861,-0.1881,-0.1913,-0.1923,-0.1993,-0.2005,-0.2002,-0.1979,-0.1918,-0.1776,-0.1687,-0.1618,-0.165,-0.1575,-0.1803,-0.1548,-0.1533,-0.1529,-0.1545,-0.1436,-0.1439,-0.1441,-0.1442,-0.1443,-0.1721,-0.1715,-0.1735,-0.1741,-0.1764,-0.1766,-0.1741,-0.1786,-0.1788,-0.1776,-0.1841,-0.1762,-0.1736,-0.1532,-0.1437,-0.1366,-0.1473,-0.1402,-0.1412,-0.1426,-0.1405,-0.1389,-0.126,-0.1262,-0.1263,-0.1264,-0.1265,0,-0.1622,-0.1625,-0.1628,-0.1629,-0.1605,-0.1658,-0.1664,-0.1613,-0.157,-0.1599,-0.1574,-0.1397,-0.1313,-0.1285,-0.1144,-0.1109,-0.1099,-0.1051,-0.1048,-0.1076,-0.1101,-0.1065,-0.0828,-0.0827,-0.0826,-0.0824,0,0,-0.1569,-0.1531,-0.1533,-0.1458,-0.1458,-0.1383,-0.1357,-0.1307,-0.1293,-0.1208,-0.1175,-0.1264,-0.1274,-0.1064,-0.1004,-0.09,-0.0977,-0.0851,-0.1204,-0.123,-0.1254,-0.1307,-0.1283,0,0,0,0,0]},{"header":{"parameterUnit":"m.s-1","parameterCategory":2,"la1":30.2991,"la2":30.254,"lo1":-89.0895,"lo2":-89.0444,"dy":0.0017,"dx":0.0017,"nx":28,"ny":28,"refTime":"2025-03-08T09:00:00:Z","depth":"2","parameterNumber":3,"parameterNumberName":"V-component_of_CURRENTS"},"data":[0,0,0,0,0,0,0,0,0,0,0,0,0,0,0,0,0,0,0,0,0,0,0,0,0,0,0,0,0,0,0,0,0,0,0,0,0,0,0,0,0,0,0,0,0,0,0,0,0,0,0,0,0,0,0,0,0,0,-0.0395,-0.0395,0,-0.0345,-0.0345,-0.0344,-0.0301,-0.0301,-0.03,-0.03,-0.0212,-0.021,-0.0208,0,0,0,0,0,0,0,0,0,0,0,0,0,-0.0406,-0.0407,-0.0395,-0.0395,-0.0394,-0.0346,-0.0345,-0.0344,-0.0301,-0.0301,-0.03,-0.03,-0.0213,-0.021,-0.0208,0,0,0,0,0,0,0,0,0,0,0,0,0,-0.0383,-0.0407,-0.0395,-0.0367,-0.0364,-0.0346,-0.0345,-0.0344,-0.0301,-0.0301,-0.03,-0.0299,-0.0213,-0.021,-0.0208,-0.0202,0,0,-0.0199,-0.0197,0,0,0,0,0,0,0,0,-0.0385,-0.0383,-0.0372,-0.0369,-0.0366,-0.0329,-0.0316,-0.0295,-0.0301,-0.0325,-0.03,-0.0299,-0.0249,-0.0243,-0.0234,-0.0198,-0.0194,-0.0198,-0.0197,-0.0195,-0.0195,0,0,0,0,0,0,0,-0.0386,-0.0384,-0.0375,-0.0371,-0.0368,-0.0341,-0.0338,-0.0312,-0.0289,-0.0322,-0.0319,-0.0315,-0.0246,-0.0237,-0.0232,-0.0193,-0.0199,-0.0196,-0.0194,-0.0193,-0.0137,-0.0137,0,0,0,0,0,0,-0.0397,-0.0386,-0.0376,-0.0373,-0.0375,-0.0342,-0.0338,-0.0341,-0.029,-0.0283,-0.0316,-0.0313,-0.0243,-0.0235,-0.0229,-0.021,-0.0195,-0.0193,-0.0191,-0.0137,-0.0137,-0.0138,0,0,0,0,0,0,-0.0398,-0.0397,-0.0378,-0.0378,-0.0374,-0.0343,-0.0347,-0.0341,-0.0331,-0.0286,-0.0277,-0.0312,-0.0242,-0.0233,-0.021,-0.0207,-0.0191,-0.0189,-0.0137,-0.0137,-0.0137,-0.0179,0,0,0,0,0,0,-0.0398,-0.0398,-0.0403,-0.038,-0.0375,-0.0372,-0.0347,-0.034,-0.0329,-0.0326,-0.028,-0.0271,-0.0241,-0.0215,-0.0207,-0.0202,-0.0186,-0.0136,-0.0137,-0.0137,-0.0177,-0.0181,-0.0184,0,0,0,0,0,-0.0399,-0.0411,-0.0404,-0.0402,-0.0384,-0.0373,-0.0368,-0.0342,-0.033,-0.033,-0.03,-0.0272,-0.0212,-0.0213,-0.0204,-0.0198,-0.0136,-0.0137,-0.0137,-0.0176,-0.018,-0.0184,0,0,0,0,0,0,-0.0417,-0.0407,-0.0398,-0.0407,-0.0393,-0.0366,-0.0364,-0.0348,-0.0325,-0.032,-0.0277,-0.0267,-0.0246,-0.022,-0.0222,-0.0184,-0.0169,-0.0168,-0.0201,-0.0205,-0.0208,-0.0211,-0.0184,0,0,0,0,0,-0.0426,-0.0433,-0.0415,-0.0421,-0.0417,-0.0392,-0.0384,-0.0369,-0.0346,-0.0335,-0.0304,-0.0271,-0.0242,-0.0223,-0.0197,-0.0177,-0.0142,-0.0168,-0.0171,-0.0174,-0.0171,-0.0121,-0.0119,-0.014,-0.0139,-0.0139,0,0,-0.0434,-0.0429,-0.0432,-0.0426,-0.0413,-0.0412,-0.0386,-0.0379,-0.0373,-0.0329,-0.0312,-0.0283,-0.0242,-0.022,-0.0207,-0.0196,-0.0151,-0.0175,-0.0177,-0.0173,-0.0121,-0.0119,-0.0117,-0.014,-0.014,-0.014,0,0,-0.0457,-0.0452,-0.0466,-0.0458,-0.0446,-0.0429,-0.0431,-0.0408,-0.0392,-0.0377,-0.0341,-0.031,-0.0273,-0.0236,-0.0214,-0.0219,-0.0174,-0.0214,-0.0226,-0.0177,-0.0175,-0.0172,-0.013,-0.0124,-0.0211,-0.0211,-0.0211,0,-0.0467,-0.0483,-0.0467,-0.0476,-0.0472,-0.0441,-0.0451,-0.0431,-0.0402,-0.0386,-0.0378,-0.0312,-0.0278,-0.0236,-0.0238,-0.0224,-0.0195,-0.0215,-0.0181,-0.0178,-0.0174,-0.0131,-0.0123,-0.0213,-0.0213,-0.0213,-0.0212,0,-0.0499,-0.051,-0.0517,-0.0519,-0.0511,-0.0516,-0.0488,-0.0476,-0.0454,-0.0426,-0.0388,-0.0342,-0.0298,-0.0284,-0.0262,-0.0221,-0.0208,-0.0195,-0.0171,-0.0175,-0.0129,-0.012,-0.0216,-0.0215,-0.0215,-0.0214,0,0,-0.0527,-0.0539,-0.0542,-0.0551,-0.0536,-0.0534,-0.0521,-0.0497,-0.0482,-0.0446,-0.0418,-0.0367,-0.0335,-0.0308,-0.0271,-0.0227,-0.018,-0.0206,-0.0202,-0.0164,-0.0077,-0.0046,-0.0033,-0.0163,-0.0161,-0.016,-0.0056,0,-0.0557,-0.0593,-0.0582,-0.0603,-0.0618,-0.0584,-0.0574,-0.0543,-0.0507,-0.0472,-0.0408,-0.0372,-0.0345,-0.0325,-0.0276,-0.0203,-0.0157,-0.0209,-0.0079,-0.0075,-0.0047,-0.0022,-0.0041,0.0052,-0.0047,-0.0046,-0.0045,0,-0.0593,-0.0612,-0.0647,-0.065,-0.0651,-0.0653,-0.0626,-0.0612,-0.0547,-0.0516,-0.046,-0.041,-0.0336,-0.0319,-0.0189,-0.0225,-0.0157,-0.01,-0.0094,-0.0043,-0.0027,0.0042,0.0073,-0.0029,-0.003,-0.0031,-0.0032,0,-0.0631,-0.0653,-0.0684,-0.0687,-0.0685,-0.0686,-0.0677,-0.0628,-0.0609,-0.0541,-0.0514,-0.0422,-0.037,-0.0276,-0.0158,-0.0173,-0.0012,-0.0015,0.0078,0.0081,0.0104,0.0107,0.0077,0.0077,0.0077,0.0077,0.0076,0,-0.0672,-0.0694,-0.0708,-0.0727,-0.0752,-0.0729,-0.0732,-0.0704,-0.0653,-0.0623,-0.0543,-0.0491,-0.0357,-0.0249,-0.0154,-0.0001,-0.0003,0.0088,0.0116,0.0088,0.0088,0.0046,0.0041,0.008,0.008,0.0079,0.0078,0,-0.0713,-0.0723,-0.0759,-0.0771,-0.0776,-0.0794,-0.0782,-0.0775,-0.0722,-0.0679,-0.0659,-0.0529,-0.0383,-0.0244,-0.0071,0.0012,0.0146,0.0198,0.0154,0.0176,0.0202,0.0193,0.031,0.0312,0.0314,0.0316,0.0317,0,-0.0737,-0.0764,-0.08,-0.0826,-0.0836,-0.0855,-0.0863,-0.082,-0.0802,-0.0697,-0.0674,-0.0523,-0.0403,-0.0136,0.0038,0.0225,0.0211,0.0308,0.0279,0.0213,0.0229,0.0218,0.0207,0.0292,0.0293,0.0294,0.0294,0,-0.0781,-0.0795,-0.0826,-0.0884,-0.091,-0.0929,-0.0931,-0.0926,-0.0859,-0.08,-0.0684,-0.0578,-0.0313,-0.0093,0.0148,0.0249,0.0275,0.033,0.0294,0.0231,0.0203,0.0216,0.0205,0.0301,0.03,0.03,0.0299,0.0299,-0.0805,-0.0842,-0.0887,-0.0936,-0.0969,-0.0991,-0.0995,-0.0967,-0.0923,-0.081,-0.0705,-0.052,-0.0308,0.0044,0.0217,0.0371,0.036,0.039,0.0385,0.0379,0.0354,0.0331,0.0447,0.0447,0.0447,0.0448,0.0448,0,-0.0834,-0.0877,-0.0933,-0.0988,-0.1026,-0.1029,-0.1026,-0.0994,-0.093,-0.0806,-0.0672,-0.0427,-0.0175,0.004,0.0294,0.0442,0.0418,0.046,0.0397,0.039,0.0384,0.0355,0.0451,0.0452,0.0452,0.0452,0,0,-0.0851,-0.0912,-0.0945,-0.1017,-0.1053,-0.1071,-0.1062,-0.0989,-0.089,-0.075,-0.0611,-0.0429,-0.0165,0.0011,0.0203,0.0336,0.0321,0.0347,0.033,0.0227,0.0219,0.0333,0.0281,0,0,0,0,0]}],[{"header":{"parameterUnit":"m.s-1","parameterCategory":2,"la1":30.2991,"la2":30.254,"lo1":-89.0895,"lo2":-89.0444,"dy":0.0017,"dx":0.0017,"nx":28,"ny":28,"refTime":"2025-03-08T09:00:00:Z","depth":"4","parameterNumber":2,"parameterNumberName":"U-component_of_CURRENTS"},"data":[0,0,0,0,0,0,0,0,0,0,0,0,0,0,0,0,0,0,0,0,0,0,0,0,0,0,0,0,0,0,0,0,0,0,0,0,0,0,0,0,0,0,0,0,0,0,0,0,0,0,0,0,0,0,0,0,0,0,-0.1417,-0.1418,0,-0.1475,-0.1476,-0.1476,-0.1524,-0.1525,-0.1526,-0.1526,-0.1613,-0.1615,-0.1616,0,0,0,0,0,0,0,0,0,0,0,0,0,-0.1347,-0.1348,-0.1417,-0.1418,-0.1419,-0.1475,-0.1476,-0.1477,-0.1524,-0.1525,-0.1526,-0.1526,-0.1612,-0.1614,-0.1617,0,0,0,0,0,0,0,0,0,0,0,0,0,-0.1388,-0.1349,-0.1417,-0.145,-0.1453,-0.1475,-0.1476,-0.1477,-0.1524,-0.1525,-0.1526,-0.1527,-0.1612,-0.1614,-0.1617,-0.1616,0,0,-0.1625,-0.1626,0,0,0,0,0,0,0,0,-0.1386,-0.139,-0.1444,-0.1448,-0.1452,-0.1494,-0.1483,-0.1525,-0.1524,-0.1496,-0.1526,-0.1527,-0.1576,-0.1581,-0.1589,-0.162,-0.1624,-0.1625,-0.1627,-0.1628,-0.1629,0,0,0,0,0,0,0,-0.1383,-0.1388,-0.1439,-0.1445,-0.145,-0.1462,-0.1469,-0.1491,-0.153,-0.1499,-0.1503,-0.151,-0.1578,-0.1586,-0.1591,-0.1625,-0.1625,-0.1627,-0.1629,-0.163,-0.1698,-0.1698,0,0,0,0,0,0,-0.1376,-0.1385,-0.1437,-0.1441,-0.1421,-0.1462,-0.147,-0.1479,-0.153,-0.1538,-0.1509,-0.1512,-0.1581,-0.1588,-0.1595,-0.1643,-0.1628,-0.163,-0.1632,-0.1698,-0.1698,-0.1698,0,0,0,0,0,0,-0.1375,-0.138,-0.1435,-0.1415,-0.1423,-0.1463,-0.1473,-0.148,-0.1514,-0.1538,-0.1547,-0.154,-0.1582,-0.1591,-0.1633,-0.1645,-0.1632,-0.1634,-0.1698,-0.1698,-0.1698,-0.171,0,0,0,0,0,0,-0.1372,-0.1379,-0.1396,-0.1415,-0.1424,-0.1462,-0.1472,-0.148,-0.1516,-0.1521,-0.1566,-0.1574,-0.1583,-0.1629,-0.1636,-0.1649,-0.1636,-0.1697,-0.1698,-0.1698,-0.171,-0.1711,-0.1712,0,0,0,0,0,-0.137,-0.1384,-0.1397,-0.1404,-0.1442,-0.1462,-0.1469,-0.1499,-0.1517,-0.1534,-0.1564,-0.1574,-0.1636,-0.1632,-0.164,-0.1653,-0.1697,-0.1698,-0.1698,-0.1709,-0.1711,-0.1712,0,0,0,0,0,0,-0.1366,-0.1391,-0.1405,-0.1428,-0.1451,-0.1471,-0.1493,-0.1512,-0.1549,-0.1563,-0.1584,-0.1593,-0.163,-0.164,-0.1635,-0.1672,-0.1665,-0.1667,-0.1671,-0.1673,-0.1674,-0.1666,-0.1638,0,0,0,0,0,-0.1371,-0.1389,-0.1412,-0.1434,-0.1447,-0.1475,-0.1493,-0.1513,-0.1541,-0.156,-0.1589,-0.1616,-0.1632,-0.1654,-0.167,-0.1699,-0.1689,-0.171,-0.1711,-0.1712,-0.171,-0.17,-0.17,-0.17,-0.17,-0.17,0,0,-0.1376,-0.1393,-0.1405,-0.1435,-0.1457,-0.1478,-0.1489,-0.1522,-0.1544,-0.1563,-0.1611,-0.1625,-0.164,-0.1666,-0.1684,-0.1683,-0.1707,-0.1713,-0.1714,-0.1711,-0.1701,-0.1701,-0.1701,-0.17,-0.17,-0.17,0,0,-0.1386,-0.1411,-0.1428,-0.1448,-0.1483,-0.1497,-0.1512,-0.1546,-0.1569,-0.161,-0.162,-0.164,-0.1685,-0.1685,-0.1692,-0.1711,-0.1711,-0.1723,-0.1731,-0.1722,-0.1722,-0.1722,-0.1707,-0.1706,-0.1728,-0.1728,-0.1728,0,-0.1395,-0.1416,-0.1437,-0.1457,-0.1477,-0.1508,-0.1531,-0.1553,-0.1599,-0.1615,-0.1631,-0.1673,-0.1687,-0.17,-0.1705,-0.1713,-0.171,-0.1726,-0.1724,-0.1723,-0.1723,-0.1708,-0.1706,-0.1728,-0.1728,-0.1728,-0.1728,0,-0.1407,-0.1436,-0.1449,-0.1483,-0.1506,-0.1532,-0.1561,-0.1593,-0.1626,-0.1643,-0.1676,-0.169,-0.1712,-0.1716,-0.1721,-0.1724,-0.1723,-0.1723,-0.1719,-0.1723,-0.1707,-0.1705,-0.1729,-0.1729,-0.1729,-0.1729,0,0,-0.1395,-0.1448,-0.1455,-0.1477,-0.1524,-0.1541,-0.158,-0.1612,-0.1639,-0.1674,-0.1701,-0.1716,-0.1725,-0.1731,-0.1735,-0.1728,-0.1719,-0.1731,-0.173,-0.1715,-0.1701,-0.1602,-0.159,-0.1725,-0.1725,-0.1725,-0.169,0,-0.1401,-0.1439,-0.1466,-0.1509,-0.153,-0.157,-0.16,-0.1635,-0.1668,-0.1701,-0.1708,-0.1735,-0.173,-0.1746,-0.1737,-0.1729,-0.1715,-0.1728,-0.17,-0.1699,-0.1609,-0.1585,-0.1724,-0.1688,-0.1688,-0.1687,-0.1687,0,-0.1398,-0.1426,-0.1468,-0.1522,-0.1536,-0.1569,-0.1622,-0.1653,-0.1696,-0.1722,-0.1743,-0.1756,-0.1757,-0.1753,-0.1729,-0.1744,-0.1721,-0.1706,-0.1704,-0.1605,-0.1595,-0.1684,-0.1683,-0.1683,-0.1683,-0.1684,-0.1684,0,-0.1363,-0.1424,-0.1458,-0.1478,-0.1543,-0.1575,-0.1613,-0.1662,-0.1688,-0.1736,-0.1757,-0.1767,-0.1776,-0.1753,-0.1726,-0.1735,-0.1691,-0.1697,-0.158,-0.1574,-0.1671,-0.1671,-0.1663,-0.1663,-0.1663,-0.1663,-0.1664,0,-0.1341,-0.1372,-0.1452,-0.1469,-0.1511,-0.1566,-0.1612,-0.1651,-0.1704,-0.1717,-0.1765,-0.1762,-0.1778,-0.1758,-0.1728,-0.1638,-0.1689,-0.1566,-0.1551,-0.1677,-0.1678,-0.1669,-0.167,-0.1662,-0.1662,-0.1663,-0.1663,0,-0.1287,-0.1344,-0.1387,-0.1468,-0.1496,-0.1527,-0.1606,-0.1626,-0.1693,-0.1712,-0.1728,-0.1764,-0.1732,-0.1725,-0.1686,-0.1626,-0.1562,-0.1517,-0.1647,-0.1643,-0.1454,-0.1456,-0.138,-0.1376,-0.1372,-0.137,-0.1367,0,-0.1258,-0.1277,-0.1371,-0.1395,-0.1435,-0.1494,-0.1523,-0.1606,-0.1621,-0.1685,-0.1673,-0.1685,-0.1688,-0.1545,-0.1562,-0.149,-0.147,-0.1434,-0.1439,-0.1428,-0.1421,-0.1429,-0.1436,-0.1362,-0.1361,-0.136,-0.1359,0,-0.1192,-0.1241,-0.1273,-0.1325,-0.1368,-0.1403,-0.1453,-0.1454,-0.1529,-0.1612,-0.1564,-0.1535,-0.1498,-0.146,-0.1415,-0.1366,-0.1457,-0.1399,-0.1405,-0.141,-0.1405,-0.1404,-0.1415,-0.1348,-0.1349,-0.135,-0.1351,0,-0.114,-0.1147,-0.1197,-0.1226,-0.128,-0.128,-0.1326,-0.133,-0.1357,-0.1435,-0.1413,-0.1426,-0.1474,-0.1394,-0.135,-0.1298,-0.1277,-0.1233,-0.1248,-0.1261,-0.1238,-0.1216,-0.1069,0,0,0,0,0,-0.1074,-0.1066,-0.1089,-0.111,-0.1159,-0.1184,-0.1255,-0.1302,-0.1382,-0.1307,-0.1356,-0.1312,-0.1253,-0.1267,-0.1183,-0.1296,-0.1284,-0.1195,-0.1243,-0.1284,-0.1297,-0.1281,0,0,0,0,0,0,-0.1028,-0.1047,-0.1048,-0.1002,-0.0993,-0.1026,-0.1064,-0.1124,-0.1092,-0.1181,-0.1152,-0.1226,-0.1185,-0.1267,-0.115,-0.1154,-0.1156,-0.1218,-0.1214,-0.1276,-0.1288,-0.1299,-0.1287,0,0,0,0,0]},{"header":{"parameterUnit":"m.s-1","parameterCategory":2,"la1":30.2991,"la2":30.254,"lo1":-89.0895,"lo2":-89.0444,"dy":0.0017,"dx":0.0017,"nx":28,"ny":28,"refTime":"2025-03-08T09:00:00:Z","depth":"4","parameterNumber":3,"parameterNumberName":"V-component_of_CURRENTS"},"data":[0,0,0,0,0,0,0,0,0,0,0,0,0,0,0,0,0,0,0,0,0,0,0,0,0,0,0,0,0,0,0,0,0,0,0,0,0,0,0,0,0,0,0,0,0,0,0,0,0,0,0,0,0,0,0,0,0,0,-0.0295,-0.0295,0,-0.0267,-0.0267,-0.0266,-0.0241,-0.0241,-0.0241,-0.0241,-0.0178,-0.0177,-0.0175,0,0,0,0,0,0,0,0,0,0,0,0,0,-0.0291,-0.0292,-0.0295,-0.0295,-0.0295,-0.0267,-0.0267,-0.0266,-0.0241,-0.0241,-0.0241,-0.0241,-0.0179,-0.0177,-0.0175,0,0,0,0,0,0,0,0,0,0,0,0,0,-0.028,-0.0292,-0.0295,-0.0279,-0.0278,-0.0267,-0.0267,-0.0266,-0.0241,-0.0241,-0.0241,-0.024,-0.0179,-0.0177,-0.0175,-0.0168,0,0,-0.0168,-0.0167,0,0,0,0,0,0,0,0,-0.0281,-0.028,-0.0282,-0.028,-0.0279,-0.0258,-0.0242,-0.0232,-0.0241,-0.0254,-0.0241,-0.024,-0.0202,-0.0198,-0.0193,-0.0165,-0.0162,-0.0168,-0.0167,-0.0166,-0.0165,0,0,0,0,0,0,0,-0.0282,-0.0281,-0.0283,-0.0282,-0.028,-0.0261,-0.026,-0.024,-0.0229,-0.0253,-0.0252,-0.025,-0.0201,-0.0195,-0.0191,-0.0162,-0.0168,-0.0166,-0.0165,-0.0164,-0.0123,-0.0123,0,0,0,0,0,0,-0.0289,-0.0282,-0.0284,-0.0282,-0.028,-0.0262,-0.026,-0.0264,-0.023,-0.0225,-0.025,-0.0249,-0.0199,-0.0194,-0.0189,-0.0175,-0.0166,-0.0164,-0.0163,-0.0122,-0.0123,-0.0123,0,0,0,0,0,0,-0.0289,-0.029,-0.0285,-0.0282,-0.028,-0.0263,-0.0267,-0.0264,-0.0261,-0.0228,-0.0222,-0.0252,-0.0199,-0.0192,-0.0178,-0.0172,-0.0163,-0.0161,-0.0122,-0.0122,-0.0123,-0.0148,0,0,0,0,0,0,-0.029,-0.029,-0.0297,-0.0283,-0.0281,-0.0284,-0.0268,-0.0264,-0.0261,-0.0259,-0.0228,-0.0221,-0.0198,-0.0181,-0.0175,-0.0169,-0.0159,-0.0122,-0.0122,-0.0123,-0.0147,-0.0149,-0.0151,0,0,0,0,0,-0.029,-0.03,-0.0298,-0.0298,-0.029,-0.0284,-0.0281,-0.0267,-0.0261,-0.0263,-0.0243,-0.0222,-0.0179,-0.018,-0.0173,-0.0166,-0.0122,-0.0122,-0.0123,-0.0146,-0.0149,-0.0151,0,0,0,0,0,0,-0.0301,-0.0298,-0.0295,-0.0305,-0.0298,-0.028,-0.0281,-0.0273,-0.0259,-0.0258,-0.0227,-0.0219,-0.0204,-0.0186,-0.0187,-0.0156,-0.0146,-0.0145,-0.0166,-0.0169,-0.0171,-0.0165,-0.0157,0,0,0,0,0,-0.0308,-0.0317,-0.0307,-0.0315,-0.0314,-0.03,-0.0296,-0.0288,-0.0274,-0.0268,-0.0246,-0.0223,-0.0201,-0.0186,-0.0167,-0.0151,-0.0123,-0.0142,-0.0144,-0.0146,-0.0138,-0.0092,-0.0089,-0.0124,-0.0124,-0.0124,0,0,-0.0315,-0.0315,-0.0319,-0.0319,-0.0312,-0.0311,-0.0297,-0.0296,-0.029,-0.0263,-0.0251,-0.0232,-0.02,-0.0182,-0.0173,-0.0165,-0.0124,-0.0147,-0.0148,-0.0139,-0.0092,-0.0089,-0.0086,-0.0125,-0.0125,-0.0125,0,0,-0.0329,-0.0333,-0.0343,-0.034,-0.0335,-0.0325,-0.0328,-0.0315,-0.0305,-0.0296,-0.0271,-0.0248,-0.0224,-0.019,-0.0172,-0.0174,-0.0141,-0.0174,-0.0173,-0.0129,-0.0126,-0.0122,-0.0093,-0.0087,-0.017,-0.017,-0.017,0,-0.0336,-0.0349,-0.0344,-0.0349,-0.0348,-0.0334,-0.0339,-0.0326,-0.0309,-0.0297,-0.0297,-0.0246,-0.0221,-0.0181,-0.0182,-0.0175,-0.0154,-0.0166,-0.0131,-0.0127,-0.0122,-0.0093,-0.0086,-0.0171,-0.0171,-0.0171,-0.0171,0,-0.0353,-0.0364,-0.0369,-0.0372,-0.0368,-0.0373,-0.0355,-0.0349,-0.0339,-0.032,-0.029,-0.0256,-0.0223,-0.0212,-0.0196,-0.0155,-0.0151,-0.0142,-0.0123,-0.012,-0.009,-0.0082,-0.0173,-0.0173,-0.0172,-0.0172,0,0,-0.0367,-0.0379,-0.0382,-0.039,-0.0382,-0.0384,-0.0372,-0.0354,-0.0346,-0.032,-0.0298,-0.0254,-0.0235,-0.0212,-0.0186,-0.0144,-0.0101,-0.0134,-0.0132,-0.0103,-0.0017,-0.0029,-0.0021,-0.0089,-0.0087,-0.0086,-0.0012,0,-0.0381,-0.0405,-0.04,-0.0415,-0.0426,-0.0408,-0.0399,-0.0379,-0.0358,-0.0334,-0.0282,-0.0259,-0.0234,-0.0224,-0.0175,-0.0123,-0.0079,-0.0123,-0.0025,-0.0022,-0.003,-0.0011,-0.0081,-0.0005,-0.0003,-0.0002,-0.0001,0,-0.0397,-0.0413,-0.0437,-0.0446,-0.0448,-0.0452,-0.0439,-0.0429,-0.0383,-0.0364,-0.0318,-0.0284,-0.0218,-0.0206,-0.0093,-0.0126,-0.0071,-0.0027,-0.0023,-0.0016,-0.0018,-0.0005,0.0014,0.0013,0.0012,0.0011,0.001,0,-0.0419,-0.0437,-0.0461,-0.0465,-0.047,-0.0475,-0.0474,-0.0442,-0.0434,-0.0384,-0.0372,-0.0288,-0.0254,-0.0168,-0.0078,-0.0086,0.0041,0.0043,0.0089,0.0088,0.0087,0.0083,0.0131,0.013,0.013,0.013,0.013,0,-0.0436,-0.0457,-0.048,-0.0496,-0.0524,-0.051,-0.0524,-0.0506,-0.0475,-0.0463,-0.0395,-0.0362,-0.0243,-0.0161,-0.0077,0.0031,0.0047,0.0099,0.0113,0.0072,0.0065,0.0093,0.0087,0.0133,0.0132,0.0132,0.0131,0,-0.0457,-0.0471,-0.0506,-0.0528,-0.054,-0.0563,-0.0575,-0.0578,-0.0543,-0.0524,-0.0511,-0.0411,-0.0301,-0.0183,-0.0038,0.0025,0.013,0.0165,0.0107,0.0115,0.0147,0.0139,0.0225,0.0225,0.0225,0.0226,0.0226,0,-0.0469,-0.0491,-0.0543,-0.0573,-0.0591,-0.0622,-0.0641,-0.0619,-0.0614,-0.0552,-0.0539,-0.0434,-0.0358,-0.0156,-0.0035,0.013,0.0151,0.0199,0.0184,0.0154,0.016,0.0152,0.0144,0.0226,0.0226,0.0227,0.0227,0,-0.0492,-0.0517,-0.055,-0.0618,-0.0657,-0.0689,-0.0709,-0.0708,-0.067,-0.0644,-0.055,-0.044,-0.0312,-0.0155,-0.0026,0.009,0.0164,0.0203,0.0203,0.0189,0.0157,0.0161,0.0153,0.0228,0.0228,0.0227,0.0227,0,-0.0512,-0.0546,-0.0598,-0.0652,-0.0706,-0.0737,-0.0743,-0.0722,-0.0704,-0.0624,-0.0594,-0.0447,-0.0354,-0.0175,-0.0056,0.0057,0.0083,0.0111,0.0117,0.0117,0.0061,0.0002,0.0048,0,0,0,0,0,-0.0525,-0.0567,-0.0625,-0.0684,-0.0738,-0.0762,-0.0778,-0.0769,-0.0734,-0.0673,-0.0628,-0.0504,-0.0307,-0.0215,-0.0102,-0.0065,0.0089,0.0069,0.0119,0.0233,0.0232,0.0183,0,0,0,0,0,0,-0.0537,-0.0596,-0.0626,-0.0696,-0.0738,-0.0786,-0.0795,-0.0772,-0.0723,-0.0671,-0.0561,-0.049,-0.0296,-0.0373,-0.0103,-0.0068,-0.0024,0.0167,0.0169,0.0234,0.0233,0.0232,0.0181,0,0,0,0,0]}]]